When you browse on this site, cookies collect data to enhance your experience and personalize the content and advertising you see.
Visit our Privacy Policy to learn more. By continuing to use the site, you agree to this use of cookies and data.
  • In Hungary
  • List of Countries
  • For 7 days
  • Water Temperature
  • Weather Map
  • News
  • Weather Widgets
  • user-avatar
    Login

    Hourly Weather Drzezewo

    Today, 23 September, Monday

    Time Temperature Precipitation Wind Pressure Humidity
    00:00 +10°C° 0 mm 5 mps 760 mmHg 95%
    01:00 +10°C° 0 mm 5 mps 760 mmHg 96%
    02:00 +12°C° 0 mm 5 mps 760 mmHg 93%
    03:00 +11°C° 0 mm 6 mps 760 mmHg 91%
    04:00 +11°C° 0 mm 6 mps 760 mmHg 88%
    05:00 +11°C° 0 mm 6 mps 760 mmHg 87%
    06:00 +10°C° 0 mm 6 mps 760 mmHg 85%
    07:00 +10°C° 0 mm 6 mps 761 mmHg 83%
    08:00 +11°C° 0 mm 6 mps 761 mmHg 78%
    09:00 +13°C° 0 mm 6 mps 761 mmHg 73%
    10:00 +14°C° 0 mm 6 mps 761 mmHg 68%
    11:00 +15°C° 0 mm 6 mps 761 mmHg 66%
    12:00 +16°C° 0 mm 6 mps 761 mmHg 63%
    13:00 +17°C° 0 mm 6 mps 761 mmHg 61%
    14:00 +16°C° 0 mm 5 mps 761 mmHg 61%
    15:00 +16°C° 0 mm 5 mps 761 mmHg 61%
    16:00 +16°C° 0 mm 5 mps 760 mmHg 61%
    17:00 +15°C° 0 mm 5 mps 760 mmHg 66%
    18:00 +13°C° 0 mm 5 mps 760 mmHg 70%
    19:00 +12°C° 0 mm 5 mps 760 mmHg 74%
    20:00 +10°C° 0 mm 5 mps 760 mmHg 75%
    21:00 +11°C° 0 mm 4 mps 761 mmHg 76%
    22:00 +10°C° 0 mm 4 mps 761 mmHg 77%
    23:00 +10°C° 0 mm 4 mps 760 mmHg 78%

    Tomorrow, 24 September, Tuesday

    Time Temperature Precipitation Wind Pressure Humidity
    00:00 +8°C° 0 mm 4 mps 760 mmHg 80%
    01:00 +9°C° 0 mm 3 mps 760 mmHg 81%
    02:00 +9°C° 0 mm 3 mps 760 mmHg 83%
    03:00 +9°C° 0 mm 3 mps 760 mmHg 85%
    04:00 +8°C° 0 mm 3 mps 759 mmHg 87%
    05:00 +9°C° 0 mm 3 mps 759 mmHg 86%
    06:00 +9°C° 0 mm 3 mps 759 mmHg 84%
    07:00 +10°C° 0 mm 3 mps 759 mmHg 83%
    08:00 +12°C° 0 mm 3 mps 759 mmHg 76%
    09:00 +14°C° 0 mm 3 mps 759 mmHg 69%
    10:00 +17°C° 0 mm 3 mps 758 mmHg 63%
    11:00 +18°C° 0 mm 3 mps 758 mmHg 59%
    12:00 +19°C° 0 mm 3 mps 758 mmHg 56%
    13:00 +20°C° 0 mm 3 mps 758 mmHg 53%
    14:00 +20°C° 0 mm 3 mps 757 mmHg 54%
    15:00 +20°C° 0 mm 3 mps 757 mmHg 55%
    16:00 +20°C° 0 mm 3 mps 756 mmHg 56%
    17:00 +18°C° 0 mm 3 mps 756 mmHg 61%
    18:00 +17°C° 0 mm 3 mps 756 mmHg 65%
    19:00 +14°C° 0 mm 3 mps 756 mmHg 69%
    20:00 +14°C° 0 mm 4 mps 755 mmHg 68%
    21:00 +14°C° 0 mm 4 mps 755 mmHg 67%
    22:00 +15°C° 0 mm 4 mps 755 mmHg 66%
    23:00 +14°C° 0.1 mm 4 mps 755 mmHg 67%

    Day after tomorrow, 25 September, Wednesday

    Time Temperature Precipitation Wind Pressure Humidity
    00:00 +14°C° 0.1 mm 4 mps 755 mmHg 67%
    01:00 +14°C° 0.1 mm 4 mps 754 mmHg 67%
    02:00 +14°C° 0.2 mm 3 mps 754 mmHg 71%
    03:00 +14°C° 0.2 mm 3 mps 754 mmHg 74%
    04:00 +13°C° 0.2 mm 3 mps 753 mmHg 77%
    05:00 +13°C° 0.2 mm 3 mps 753 mmHg 77%
    06:00 +13°C° 0.2 mm 3 mps 753 mmHg 77%
    07:00 +13°C° 0.2 mm 3 mps 752 mmHg 77%
    08:00 +13°C° 0 mm 4 mps 752 mmHg 79%
    09:00 +13°C° 0 mm 4 mps 753 mmHg 80%
    10:00 +13°C° 0 mm 5 mps 753 mmHg 82%
    11:00 +13°C° 0.2 mm 4 mps 752 mmHg 82%
    12:00 +13°C° 0.2 mm 4 mps 752 mmHg 82%
    13:00 +13°C° 0.2 mm 4 mps 752 mmHg 82%
    14:00 +14°C° 0 mm 4 mps 752 mmHg 81%
    15:00 +14°C° 0 mm 3 mps 752 mmHg 81%
    16:00 +14°C° 0 mm 3 mps 752 mmHg 81%
    17:00 +14°C° 0 mm 3 mps 752 mmHg 83%
    18:00 +14°C° 0 mm 3 mps 752 mmHg 86%
    19:00 +13°C° 0 mm 3 mps 752 mmHg 89%
    20:00 +13°C° 0 mm 3 mps 752 mmHg 89%
    21:00 +13°C° 0 mm 3 mps 752 mmHg 89%
    22:00 +13°C° 0 mm 3 mps 752 mmHg 90%
    23:00 +14°C° 0.2 mm 2 mps 752 mmHg 91%

    26 September, Thursday

    Time Temperature Precipitation Wind Pressure Humidity
    00:00 +14°C° 0.2 mm 2 mps 753 mmHg 92%
    01:00 +14°C° 0.2 mm 2 mps 753 mmHg 93%
    02:00 +14°C° 0.2 mm 2 mps 753 mmHg 93%
    03:00 +14°C° 0.2 mm 1 mps 753 mmHg 94%
    04:00 +14°C° 0.2 mm 1 mps 753 mmHg 94%
    05:00 +14°C° 0.2 mm 1 mps 753 mmHg 94%
    06:00 +14°C° 0.2 mm 1 mps 754 mmHg 95%
    07:00 +14°C° 0.2 mm 1 mps 754 mmHg 95%
    08:00 +14°C° 0.2 mm 1 mps 754 mmHg 94%
    09:00 +14°C° 0.2 mm 1 mps 755 mmHg 93%
    10:00 +15°C° 0.2 mm 1 mps 755 mmHg 92%
    11:00 +15°C° 0.1 mm 1 mps 755 mmHg 92%
    12:00 +15°C° 0.1 mm 1 mps 755 mmHg 91%
    13:00 +15°C° 0.1 mm 1 mps 755 mmHg 90%
    14:00 +15°C° 0.1 mm 1 mps 756 mmHg 90%
    15:00 +15°C° 0.1 mm 1 mps 756 mmHg 90%
    16:00 +15°C° 0.1 mm 1 mps 756 mmHg 91%
    17:00 +15°C° 0 mm 1 mps 756 mmHg 92%
    18:00 +14°C° 0 mm 1 mps 756 mmHg 93%
    19:00 +14°C° 0 mm 1 mps 756 mmHg 94%
    20:00 +13°C° 0 mm 1 mps 756 mmHg 94%
    21:00 +13°C° 0 mm 1 mps 757 mmHg 95%
    22:00 +13°C° 0 mm 2 mps 757 mmHg 95%
    23:00 +13°C° 0 mm 2 mps 757 mmHg 95%

    27 September, Friday

    Time Temperature Precipitation Wind Pressure Humidity
    00:00 +12°C° 0 mm 2 mps 757 mmHg 94%
    01:00 +12°C° 0 mm 2 mps 757 mmHg 94%
    02:00 +12°C° 0 mm 2 mps 757 mmHg 94%
    03:00 +12°C° 0 mm 2 mps 757 mmHg 94%
    04:00 +12°C° 0 mm 2 mps 757 mmHg 94%
    05:00 +12°C° 0 mm 2 mps 756 mmHg 93%
    06:00 +12°C° 0 mm 3 mps 756 mmHg 93%
    07:00 +12°C° 0 mm 3 mps 756 mmHg 92%
    08:00 +14°C° 0 mm 3 mps 756 mmHg 87%
    09:00 +15°C° 0 mm 4 mps 756 mmHg 82%
    10:00 +18°C° 0 mm 4 mps 756 mmHg 78%
    11:00 +18°C° 0 mm 4 mps 756 mmHg 78%
    12:00 +18°C° 0 mm 4 mps 756 mmHg 78%
    13:00 +19°C° 0 mm 5 mps 755 mmHg 78%
    14:00 +19°C° 0 mm 4 mps 755 mmHg 77%
    15:00 +19°C° 0 mm 4 mps 755 mmHg 76%
    16:00 +19°C° 0 mm 4 mps 754 mmHg 75%
    17:00 +18°C° 0.2 mm 4 mps 754 mmHg 78%
    18:00 +17°C° 0.2 mm 5 mps 754 mmHg 80%
    19:00 +16°C° 0.2 mm 5 mps 754 mmHg 82%
    20:00 +16°C° 0 mm 5 mps 754 mmHg 83%
    21:00 +16°C° 0 mm 5 mps 754 mmHg 85%
    22:00 +15°C° 0 mm 5 mps 754 mmHg 86%
    23:00 +15°C° 0 mm 5 mps 754 mmHg 88%

    28 September, Saturday

    Time Temperature Precipitation Wind Pressure Humidity
    00:00 +14°C° 0 mm 4 mps 753 mmHg 90%
    01:00 +14°C° 0 mm 4 mps 753 mmHg 92%
    02:00 +14°C° 0 mm 3 mps 753 mmHg 93%
    03:00 +14°C° 0 mm 3 mps 753 mmHg 93%
    04:00 +14°C° 0 mm 3 mps 753 mmHg 93%
    05:00 +14°C° 0.1 mm 3 mps 753 mmHg 93%
    06:00 +13°C° 0.1 mm 3 mps 753 mmHg 93%
    07:00 +13°C° 0.1 mm 4 mps 753 mmHg 93%
    08:00 +14°C° 0.2 mm 4 mps 753 mmHg 86%
    09:00 +17°C° 0.2 mm 4 mps 753 mmHg 79%
    10:00 +17°C° 0.2 mm 5 mps 753 mmHg 73%
    11:00 +17°C° 0.2 mm 5 mps 753 mmHg 69%
    12:00 +17°C° 0.2 mm 5 mps 753 mmHg 65%
    13:00 +19°C° 0.2 mm 5 mps 752 mmHg 61%
    14:00 +19°C° 0.4 mm 5 mps 752 mmHg 62%
    15:00 +17°C° 0.4 mm 5 mps 752 mmHg 64%
    16:00 +18°C° 0.4 mm 4 mps 752 mmHg 65%
    17:00 +17°C° 0.3 mm 4 mps 752 mmHg 67%
    18:00 +15°C° 0.3 mm 4 mps 752 mmHg 70%
    19:00 +14°C° 0.3 mm 4 mps 752 mmHg 72%
    20:00 +14°C° 0 mm 5 mps 752 mmHg 75%
    21:00 +13°C° 0 mm 5 mps 751 mmHg 77%
    22:00 +13°C° 0 mm 5 mps 751 mmHg 80%
    23:00 +13°C° 0 mm 5 mps 751 mmHg 80%
    Show more